This is the latest recevied weather packets stored in our database for station/object KA7EII-13. If no packets are shown the sender has not sent any weather packets the latest 10 day(s).
| Time | Temp. | Humidity | Pressure | Rain* | Wind** | Luminosity | Snow |
|---|---|---|---|---|---|---|---|
| 1777870086 | 12.78° C | 47% | 1099.4 hPa | 0 mm | - | 0 W/m² | - |
| 1777869784 | 12.78° C | 46% | 1099.2 hPa | 0 mm | - | 0 W/m² | - |
| 1777869481 | 13.33° C | 44% | 1099.3 hPa | 0 mm | - | 0 W/m² | - |
| 1777869178 | 13.89° C | 42% | 1099.3 hPa | 0 mm | - | 0 W/m² | - |
| 1777868875 | 13.89° C | 42% | 1099.3 hPa | 0 mm | - | 0 W/m² | - |
| 1777868571 | 13.89° C | 42% | 1099.2 hPa | 0 mm | - | 0 W/m² | - |
| 1777868267 | 13.89° C | 42% | 1099.1 hPa | 0 mm | - | 0 W/m² | - |
| 1777867964 | 13.89° C | 42% | 1099.1 hPa | 0 mm | - | 0 W/m² | - |
| 1777867659 | 13.33° C | 43% | 1099.3 hPa | 0 mm | - | 0 W/m² | - |
| 1777867358 | 13.33° C | 44% | 1099.2 hPa | 0 mm | - | 0 W/m² | - |
| 1777867053 | 13.33° C | 45% | 1099.4 hPa | 0 mm | - | 0 W/m² | - |
| 1777866751 | 12.78° C | 45% | 1099.3 hPa | 0 mm | - | 0 W/m² | - |
| 1777866449 | 13.33° C | 46% | 1099.2 hPa | 0 mm | - | 0 W/m² | - |
| 1777866146 | 13.89° C | 43% | 1099.2 hPa | 0 mm | - | 0 W/m² | - |
| 1777865843 | 13.89° C | 43% | 1099.2 hPa | 0 mm | - | 0 W/m² | - |
| 1777865541 | 14.44° C | 42% | 1099.2 hPa | 0 mm | - | 0 W/m² | - |
| 1777865237 | 15° C | 41% | 1099.1 hPa | 0 mm | - | 0 W/m² | - |
| 1777864934 | 15° C | 41% | 1099.1 hPa | 0 mm | - | 0 W/m² | - |
| 1777864631 | 15° C | 41% | 1099.1 hPa | 0 mm | - | 0 W/m² | - |
| 1777864328 | 15.56° C | 41% | 1099.1 hPa | 0 mm | - | 0 W/m² | - |
| 1777864023 | 15.56° C | 40% | 1099 hPa | 0 mm | - | 0 W/m² | - |
| 1777863721 | 16.11° C | 39% | 1099.2 hPa | 0 mm | - | 0 W/m² | - |
| 1777863418 | 16.67° C | 37% | 1099 hPa | 0 mm | - | 0 W/m² | - |
| 1777863114 | 16.11° C | 37% | 1099.1 hPa | 0 mm | - | 0 W/m² | - |
| 1777862811 | 15.56° C | 38% | 1099 hPa | 0 mm | - | 0 W/m² | - |
* Rain latest hour (hover to see other rain measurements)
** Current wind speed in m/s (hover to see current wind gust speed)